STARLINK-1502 (45764 NORAD) Tracking and Keplerian Element Data

This shows tracking and keplerian element data for the satellite.

Feedback or suggestion? Click here.




ElementValue
Catalog45764
NameSTARLINK-1502
Epoch Orbit904
Epoch Day215.91667824
Epoch Year2020
RAAN48.6063
Inclination53.0002
Eccentricity0.0001213
Argument of Perigee52.7535
Mean Anonmoly173.1563
Mean Motion15.62745096
Decay Rate0.00041924
L11 45764U 20038AL 20215.91667824 .00041924 00000-0 46146-3 0 9996
L22 45764 53.0002 48.6063 0001213 52.7535 173.1563 15.62745096 9043

Live tracking and technical data element details for STARLINK-1502 (NORAD 45764). STARLINK-1502 can be tracked NOW for your location showing map with azimuth and elevation plus other details from your city location.

Track the satellite on the map from your city or location and see movement details for azimuth, elevation, latitude, longitude, range, height, and movement on the map or in text.







IsCatalogInMostPopularTable: catalog: 45764, numindb: 10
Update: records affected: 1



GetName: 45764 STARLINK-1502

Hit Count: updated at: Mon, 03 Aug 2020 17:53:29 GMT